Tracking 30685 objects as of 18-Jun-2025
HD Live streaming from Space Station
objects crossing your sky now

STARLINK-31213

Track STARLINK-31213 now!
10-day predictions
STARLINK-31213 is classified as:


NORAD ID: 58860
Int'l Code: 2024-019H
Perigee: 489.4 km
Apogee: 491.1 km
Inclination: 43.0 °
Period: 94.3 minutes
Semi major axis: 6861 km
RCS: Unknown
Launch date: January 29, 2024
Source: United States (US)
Launch site: AIR FORCE EASTERN TEST RANGE (AFETR)
Your satellite tracking list
Your tracking list is empty




NASA's NSSDC Master Catalog

Two Line Element Set (TLE):
1 58860U 24019H   25168.68271624 -.00000430  00000-0 -61178-5 0  9998
2 58860  43.0008 305.4754 0001196 294.9194  65.1533 15.27562501 78559
Source of the keplerian elements: AFSPC